Location: Kalberh�ni
(46.4610°N, 7.2453°E)
Time: 01:00:43
(UTC+00:00)

Cosmos 1980 - Pass Details

Date: 20 June 2021
Orbit: 838 x 848 km, 71.0° (Epoch: 25 July)

Event Time Altitude Azimuth Distance (km) Brightness Sun altitude
Exits shadow 21:50:50 24° 178° (S) 1,699 4.7 -16.4°
Maximum altitude 21:54:10 55° 110° (ESE) 1,013 3.8 -16.6°
Drops below altitude 10° 21:59:43 10° 34° (NE) 2,481 6.6 -17.0°
Sets 22:02:12 0° 30° (NNE) 3,421 7.4 -17.2°
